Wellsville, NY

11:45 AM EDT on April 21, 2018 (GMT -0400)
Wellsville Municipal-Tarantine

Weather History for KELZ - May, 2013

Change the Weather History Date:

Wednesday, May 15, 2013

  Actual Average (KDSV) Record (KDSV)
Temperature  
Mean Temperature 63 °F -  
Max Temperature 80 °F 68 °F 90 °F (1974)
Min Temperature 46 °F 43 °F 34 °F (1969)
Degree Days  
Heating Degree Days 2    
Growing Degree Days 13 (Base 50)    
Moisture  
Dew Point 43 °F    
Average Humidity 54    
Maximum Humidity 68    
Minimum Humidity 32    
Precipitation  
Precipitation 0.01 in - - ()
Sea Level Pressure  
Sea Level Pressure 29.79 in    
Wind  
Wind Speed 11 mph (SW)    
Max Wind Speed 33 mph    
Max Gust Speed 46 mph    
Visibility 10 miles    
Events Rain    
Averages and records for this station are not official NWS values.
T = Trace of Precipitation, MM = Missing Value Source: NWS Daily Summary

Daily Weather History Graph

Daily Weather History Graph

Search for Another Location

Airport or City:

Astronomy

May. 15, 2013 Rise Set
Actual Time 5:50 AM EDT 8:26 PM EDT
Civil Twilight 5:18 AM EDT 8:58 PM EDT
Nautical Twilight 4:38 AM EDT 9:38 PM EDT
Astronomical Twilight 3:53 AM EDT 10:24 PM EDT
Moon 10:25 AM EDT (5/15) 12:10 AM EDT (5/15)
Length of Visible Light 15h 39m
Length of Day
14h 35m
Waxing Crescent, 26% of the Moon is Illuminated
May 15
Waxing Crescent
May 18
First Quarter
May 25
Full
May 31
Last Quarter
Jun 8
New

Hourly Weather History & Observations

Time (EDT) Temp. Windchill Dew Point Humidity Pressure Visibility Wind Dir Wind Speed Gust Speed Precip Events Conditions
12:56 AM 46.0 °F 44.8 °F 36.0 °F 68% 29.97 in 10.0 mi SSE 3.5 mph - N/A   Overcast
1:56 AM 48.0 °F - 36.0 °F 63% 29.94 in 10.0 mi South 10.4 mph - 0.01 in   Overcast
2:56 AM 48.9 °F - 33.1 °F 54% 29.93 in 10.0 mi South 8.1 mph - N/A   Overcast
3:56 AM 48.9 °F - 33.1 °F 54% 29.91 in 10.0 mi Variable 6.9 mph - N/A   Overcast
4:56 AM 48.9 °F - 34.0 °F 56% 29.88 in 10.0 mi Variable 5.8 mph - N/A   Overcast
5:56 AM 48.9 °F - 34.0 °F 56% 29.87 in 10.0 mi South 8.1 mph - N/A   Scattered Clouds
6:56 AM 48.0 °F - 37.0 °F 66% 29.86 in 10.0 mi South 9.2 mph - 0.00 in   Mostly Cloudy
7:56 AM 48.9 °F - 37.9 °F 66% 29.84 in 10.0 mi SE 8.1 mph - 0.00 in Rain Light Rain
8:56 AM 50.0 °F - 39.0 °F 66% 29.80 in 10.0 mi South 11.5 mph 18.4 mph 0.00 in Rain Light Rain
9:56 AM 54.0 °F - 43.0 °F 66% 29.78 in 10.0 mi South 9.2 mph - 0.00 in   Overcast
10:56 AM 63.0 °F - 48.0 °F 58% 29.74 in 10.0 mi SSW 12.7 mph 21.9 mph N/A   Scattered Clouds
11:56 AM 68.0 °F - 51.1 °F 55% 29.73 in 10.0 mi SSW 9.2 mph 25.3 mph N/A   Clear
12:56 PM 73.0 °F - 54.0 °F 51% 29.67 in 10.0 mi WSW 17.3 mph 29.9 mph N/A   Clear
1:56 PM 75.0 °F - 55.0 °F 50% 29.64 in 10.0 mi SW 19.6 mph 34.5 mph N/A   Clear
2:56 PM 78.1 °F - 53.1 °F 42% 29.65 in 10.0 mi West 25.3 mph 35.7 mph N/A   Partly Cloudy
3:56 PM 80.1 °F - 48.0 °F 32% 29.64 in 10.0 mi West 19.6 mph 32.2 mph N/A   Partly Cloudy
4:56 PM 77.0 °F - 45.0 °F 32% 29.68 in 10.0 mi WNW 31.1 mph 46.0 mph 0.00 in Rain Light Rain
5:56 PM 73.9 °F - 44.1 °F 34% 29.70 in 10.0 mi West 33.4 mph 46.0 mph 0.00 in   Clear
6:56 PM 70.0 °F - 46.0 °F 42% 29.73 in 10.0 mi WNW 17.3 mph 36.8 mph N/A   Clear
7:56 PM 66.9 °F - 46.0 °F 47% 29.77 in 10.0 mi NW 15.0 mph - N/A   Clear
8:56 PM 64.0 °F - 45.0 °F 50% 29.79 in 10.0 mi WNW 13.8 mph 20.7 mph N/A   Clear
9:56 PM 61.0 °F - 45.0 °F 56% 29.81 in 10.0 mi NW 8.1 mph - N/A   Clear
10:56 PM 61.0 °F - 45.0 °F 56% 29.80 in 10.0 mi NW 9.2 mph - N/A   Clear
11:56 PM 55.0 °F - 44.1 °F 67% 29.80 in 10.0 mi WNW 4.6 mph - N/A   Clear